Wetterdaten: aktuell Montag, 16.07.2018 08:55
Datum Zeit Temp. A. Temp. A. min Feuchte A. Luftdruck Regen Wind Richtung Richtung Sonnenschein Solar Taupunkt Windchill Windben
16.07.2018 08:55 17,4 C 17,3 C 93 % 1021,2 hPa 0,0 l/m 0,9 km/h (0 Bft) S-SO 162 0 min 0 W/m 16,3 C 17,4 C 3,2 km/h (1 Bft)
16.07.2018 08:50 17,3 C 17,2 C 93 % 1021,2 hPa 0,0 l/m 1,7 km/h (1 Bft) S-SO 162 0 min 0 W/m 16,2 C 17,3 C 3,2 km/h (1 Bft)
16.07.2018 08:45 17,2 C 17,1 C 93 % 1021,3 hPa 0,0 l/m 0,6 km/h (0 Bft) S-SO 162 0 min 0 W/m 16,1 C 17,2 C 3,2 km/h (1 Bft)
16.07.2018 08:40 17,1 C 17,0 C 93 % 1021,2 hPa 0,0 l/m 1,7 km/h (1 Bft) S 184 0 min 0 W/m 16,0 C 17,1 C 3,2 km/h (1 Bft)
16.07.2018 08:35 17,0 C 16,9 C 93 % 1021,3 hPa 0,0 l/m 1,2 km/h (1 Bft) S 185 0 min 0 W/m 15,9 C 17,0 C 3,2 km/h (1 Bft)
16.07.2018 08:30 16,9 C 16,8 C 93 % 1021,3 hPa 0,0 l/m 1,0 km/h (0 Bft) S 190 0 min 0 W/m 15,8 C 16,9 C 3,2 km/h (1 Bft)
16.07.2018 08:25 16,8 C 16,8 C 93 % 1021,3 hPa 0,0 l/m 2,2 km/h (1 Bft) S 190 0 min 0 W/m 15,7 C 16,8 C 4,8 km/h (1 Bft)
16.07.2018 08:20 16,8 C 16,7 C 93 % 1021,3 hPa 0,0 l/m 1,4 km/h (1 Bft) S 190 0 min 0 W/m 15,7 C 16,8 C 3,2 km/h (1 Bft)
16.07.2018 08:15 16,7 C 16,7 C 93 % 1021,4 hPa 0,0 l/m 2,0 km/h (1 Bft) S 190 0 min 0 W/m 15,6 C 16,7 C 4,8 km/h (1 Bft)
16.07.2018 08:10 16,7 C 16,7 C 93 % 1021,3 hPa 0,0 l/m 1,5 km/h (1 Bft) S 189 0 min 0 W/m 15,6 C 16,7 C 3,2 km/h (1 Bft)
16.07.2018 08:05 16,7 C 16,7 C 94 % 1021,2 hPa 0,0 l/m 0,8 km/h (0 Bft) S 189 0 min 0 W/m 15,7 C 16,7 C 3,2 km/h (1 Bft)
16.07.2018 08:00 16,7 C 16,6 C 94 % 1021,2 hPa 0,0 l/m 2,4 km/h (1 Bft) S 189 0 min 0 W/m 15,7 C 16,7 C 4,8 km/h (1 Bft)
16.07.2018 07:55 16,6 C 16,6 C 94 % 1021,2 hPa 0,0 l/m 1,7 km/h (1 Bft) S 178 0 min 0 W/m 15,6 C 16,6 C 3,2 km/h (1 Bft)
16.07.2018 07:50 16,6 C 16,5 C 94 % 1021,2 hPa 0,0 l/m 2,4 km/h (1 Bft) S 178 0 min 0 W/m 15,6 C 16,6 C 6,4 km/h (2 Bft)
16.07.2018 07:45 16,5 C 16,4 C 94 % 1021,2 hPa 0,0 l/m 1,8 km/h (1 Bft) S 188 0 min 0 W/m 15,5 C 16,5 C 6,4 km/h (2 Bft)
16.07.2018 07:40 16,4 C 16,4 C 93 % 1021,1 hPa 0,0 l/m 3,4 km/h (1 Bft) S 186 0 min 0 W/m 15,3 C 16,4 C 6,4 km/h (2 Bft)
16.07.2018 07:35 16,4 C 16,4 C 94 % 1021,1 hPa 0,0 l/m 3,0 km/h (1 Bft) S-SO 167 0 min 0 W/m 15,4 C 16,4 C 6,4 km/h (2 Bft)
16.07.2018 07:30 16,4 C 16,4 C 94 % 1021,0 hPa 0,0 l/m 3,1 km/h (1 Bft) S-SO 167 0 min 0 W/m 15,4 C 16,4 C 8,0 km/h (2 Bft)
16.07.2018 07:25 16,4 C 16,4 C 94 % 1020,9 hPa 0,0 l/m 2,7 km/h (1 Bft) S 176 0 min 0 W/m 15,4 C 16,4 C 4,8 km/h (1 Bft)
16.07.2018 07:20 16,4 C 16,4 C 94 % 1020,9 hPa 0,0 l/m 1,5 km/h (1 Bft) S 177 0 min 0 W/m 15,4 C 16,4 C 4,8 km/h (1 Bft)
16.07.2018 07:15 16,4 C 16,4 C 94 % 1020,9 hPa 0,0 l/m 2,4 km/h (1 Bft) S 182 0 min 0 W/m 15,4 C 16,4 C 8,0 km/h (2 Bft)
16.07.2018 07:10 16,4 C 16,3 C 94 % 1020,9 hPa 0,0 l/m 3,2 km/h (1 Bft) S 190 0 min 0 W/m 15,4 C 16,4 C 6,4 km/h (2 Bft)
16.07.2018 07:05 16,3 C 16,3 C 94 % 1020,9 hPa 0,0 l/m 1,2 km/h (1 Bft) SW 215 0 min 0 W/m 15,3 C 16,3 C 4,8 km/h (1 Bft)
16.07.2018 07:00 16,3 C 16,3 C 94 % 1021,0 hPa 0,0 l/m 1,2 km/h (1 Bft) W 280 0 min 0 W/m 15,3 C 16,3 C 4,8 km/h (1 Bft)
16.07.2018 06:55 16,3 C 16,2 C 94 % 1021,0 hPa 0,0 l/m 0,1 km/h (0 Bft) O-NO 63 0 min 0 W/m 15,3 C 16,3 C 1,6 km/h (1 Bft)
16.07.2018 06:50 16,3 C 16,2 C 94 % 1021,0 hPa 0,0 l/m 0,3 km/h (0 Bft) O-NO 63 0 min 0 W/m 15,3 C 16,3 C 3,2 km/h (1 Bft)
16.07.2018 06:45 16,3 C 16,3 C 94 % 1020,9 hPa 0,0 l/m 3,1 km/h (1 Bft) O-NO 71 0 min 0 W/m 15,3 C 16,3 C 6,4 km/h (2 Bft)
16.07.2018 06:40 16,3 C 16,3 C 94 % 1020,9 hPa 0,0 l/m 2,9 km/h (1 Bft) NO 35 0 min 0 W/m 15,3 C 16,3 C 6,4 km/h (2 Bft)
16.07.2018 06:35 16,3 C 16,3 C 94 % 1020,9 hPa 0,0 l/m 0,0 km/h (0 Bft) S 182 0 min 0 W/m 15,3 C 16,3 C 1,6 km/h (1 Bft)
16.07.2018 06:30 16,3 C 16,3 C 93 % 1021,1 hPa 0,0 l/m 1,2 km/h (1 Bft) S 182 0 min 0 W/m 15,2 C 16,3 C 3,2 km/h (1 Bft)
16.07.2018 06:25 16,3 C 16,2 C 93 % 1021,1 hPa 0,0 l/m 2,4 km/h (1 Bft) S 182 0 min 0 W/m 15,2 C 16,3 C 4,8 km/h (1 Bft)
16.07.2018 06:20 16,2 C 16,2 C 93 % 1021,2 hPa 0,0 l/m 2,4 km/h (1 Bft) S 180 0 min 0 W/m 15,1 C 16,2 C 4,8 km/h (1 Bft)
16.07.2018 06:15 16,2 C 16,2 C 93 % 1021,2 hPa 0,0 l/m 0,9 km/h (0 Bft) S 180 0 min 0 W/m 15,1 C 16,2 C 3,2 km/h (1 Bft)
16.07.2018 06:10 16,2 C 16,1 C 93 % 1021,2 hPa 0,0 l/m 3,0 km/h (1 Bft) S 180 0 min 0 W/m 15,1 C 16,2 C 6,4 km/h (2 Bft)
16.07.2018 06:05 16,1 C 16,1 C 93 % 1021,2 hPa 0,0 l/m 1,1 km/h (1 Bft) S 188 0 min 0 W/m 15,0 C 16,1 C 3,2 km/h (1 Bft)
16.07.2018 06:00 16,1 C 16,1 C 93 % 1021,2 hPa 0,0 l/m 0,7 km/h (0 Bft) N 355 0 min 0 W/m 15,0 C 16,1 C 3,2 km/h (1 Bft)
16.07.2018 05:55 16,1 C 16,1 C 93 % 1021,2 hPa 0,0 l/m 0,0 km/h (0 Bft) N 355 0 min 0 W/m 15,0 C 16,1 C 0,0 km/h (0 Bft)
16.07.2018 05:50 16,1 C 16,1 C 93 % 1021,2 hPa 0,0 l/m 0,0 km/h (0 Bft) N 355 0 min 0 W/m 15,0 C 16,1 C 0,0 km/h (0 Bft)
16.07.2018 05:45 16,1 C 16,1 C 93 % 1021,1 hPa 0,0 l/m 1,0 km/h (0 Bft) N 355 0 min 0 W/m 15,0 C 16,1 C 3,2 km/h (1 Bft)
16.07.2018 05:40 16,1 C 16,1 C 93 % 1021,1 hPa 0,0 l/m 2,9 km/h (1 Bft) N 5 0 min 0 W/m 15,0 C 16,1 C 6,4 km/h (2 Bft)
16.07.2018 05:35 16,1 C 16,1 C 93 % 1021,2 hPa 0,0 l/m 1,4 km/h (1 Bft) N-NO 22 0 min 0 W/m 15,0 C 16,1 C 4,8 km/h (1 Bft)
16.07.2018 05:30 16,1 C 16,0 C 93 % 1021,2 hPa 0,0 l/m 0,0 km/h (0 Bft) N-NO 28 0 min 0 W/m 15,0 C 16,1 C 0,0 km/h (0 Bft)
16.07.2018 05:25 16,0 C 16,0 C 93 % 1021,4 hPa 0,0 l/m 0,0 km/h (0 Bft) N-NO 27 0 min 0 W/m 14,9 C 16,0 C 0,0 km/h (0 Bft)
16.07.2018 05:20 16,0 C 15,9 C 93 % 1021,3 hPa 0,0 l/m 0,0 km/h (0 Bft) N-NO 27 0 min 0 W/m 14,9 C 16,0 C 0,0 km/h (0 Bft)
16.07.2018 05:15 15,9 C 15,9 C 93 % 1021,3 hPa 0,3 l/m 0,0 km/h (0 Bft) N-NO 27 0 min 0 W/m 14,8 C 15,9 C 0,0 km/h (0 Bft)
16.07.2018 05:10 15,9 C 15,9 C 92 % 1021,3 hPa 0,0 l/m 0,0 km/h (0 Bft) N-NO 27 0 min 0 W/m 14,6 C 15,9 C 0,0 km/h (0 Bft)
16.07.2018 05:05 15,9 C 15,9 C 92 % 1021,2 hPa 0,0 l/m 2,9 km/h (1 Bft) N-NO 27 0 min 0 W/m 14,6 C 15,9 C 9,7 km/h (2 Bft)
16.07.2018 05:00 15,9 C 15,9 C 92 % 1021,2 hPa 0,3 l/m 6,9 km/h (2 Bft) NO 36 0 min 0 W/m 14,6 C 15,9 C 12,9 km/h (3 Bft)
16.07.2018 04:55 15,9 C 15,9 C 92 % 1021,3 hPa 0,0 l/m 5,1 km/h (1 Bft) O-NO 63 0 min 0 W/m 14,6 C 15,9 C 14,5 km/h (3 Bft)
16.07.2018 04:50 15,9 C 15,9 C 92 % 1021,4 hPa 0,0 l/m 3,5 km/h (1 Bft) N 360 0 min 0 W/m 14,6 C 15,9 C 6,4 km/h (2 Bft)
16.07.2018 04:45 16,0 C 16,0 C 92 % 1021,5 hPa 0,3 l/m 5,2 km/h (1 Bft) N-NO 22 0 min 0 W/m 14,7 C 16,0 C 9,7 km/h (2 Bft)
16.07.2018 04:40 16,1 C 16,1 C 92 % 1021,6 hPa 0,0 l/m 4,8 km/h (1 Bft) NO 44 0 min 0 W/m 14,8 C 16,1 C 8,0 km/h (2 Bft)
16.07.2018 04:35 16,2 C 16,2 C 92 % 1021,7 hPa 0,3 l/m 2,9 km/h (1 Bft) N-NO 26 0 min 0 W/m 14,9 C 16,2 C 4,8 km/h (1 Bft)
16.07.2018 04:30 16,2 C 16,2 C 91 % 1021,8 hPa 0,0 l/m 1,1 km/h (1 Bft) NO 42 0 min 0 W/m 14,7 C 16,2 C 3,2 km/h (1 Bft)
16.07.2018 04:25 16,3 C 16,3 C 91 % 1021,8 hPa 0,0 l/m 3,3 km/h (1 Bft) NO 42 0 min 0 W/m 14,8 C 16,3 C 6,4 km/h (2 Bft)
16.07.2018 04:20 16,3 C 16,3 C 91 % 1021,8 hPa 0,3 l/m 3,5 km/h (1 Bft) N-NO 13 0 min 0 W/m 14,8 C 16,3 C 6,4 km/h (2 Bft)
16.07.2018 04:15 16,4 C 16,4 C 91 % 1021,8 hPa 0,3 l/m 3,0 km/h (1 Bft) O 86 0 min 0 W/m 14,9 C 16,4 C 6,4 km/h (2 Bft)
16.07.2018 04:10 16,4 C 16,3 C 91 % 1021,9 hPa 0,3 l/m 2,0 km/h (1 Bft) O 82 0 min 0 W/m 14,9 C 16,4 C 6,4 km/h (2 Bft)
16.07.2018 04:05 16,3 C 16,3 C 91 % 1021,9 hPa 0,0 l/m 1,3 km/h (1 Bft) N 355 0 min 0 W/m 14,8 C 16,3 C 4,8 km/h (1 Bft)
16.07.2018 04:00 16,3 C 16,3 C 90 % 1022,0 hPa 0,3 l/m 1,7 km/h (1 Bft) N-NW 339 0 min 0 W/m 14,7 C 16,3 C 4,8 km/h (1 Bft)
16.07.2018 03:55 16,3 C 16,3 C 90 % 1021,9 hPa 0,0 l/m 0,4 km/h (0 Bft) N 360 0 min 0 W/m 14,7 C 16,3 C 3,2 km/h (1 Bft)
16.07.2018 03:50 16,4 C 16,4 C 90 % 1021,9 hPa 0,0 l/m 0,6 km/h (0 Bft) N 11 0 min 0 W/m 14,8 C 16,4 C 3,2 km/h (1 Bft)
16.07.2018 03:45 16,4 C 16,4 C 90 % 1021,7 hPa 0,0 l/m 0,7 km/h (0 Bft) N 11 0 min 0 W/m 14,8 C 16,4 C 3,2 km/h (1 Bft)
16.07.2018 03:40 16,4 C 16,4 C 90 % 1021,5 hPa 0,3 l/m 2,4 km/h (1 Bft) N 5 0 min 0 W/m 14,8 C 16,4 C 6,4 km/h (2 Bft)
16.07.2018 03:35 16,4 C 16,4 C 90 % 1021,5 hPa 0,0 l/m 2,0 km/h (1 Bft) N 355 0 min 0 W/m 14,8 C 16,4 C 4,8 km/h (1 Bft)
16.07.2018 03:30 16,5 C 16,5 C 90 % 1021,5 hPa 0,0 l/m 0,6 km/h (0 Bft) O-SO 105 0 min 0 W/m 14,9 C 16,5 C 1,6 km/h (1 Bft)
16.07.2018 03:25 16,6 C 16,6 C 90 % 1021,5 hPa 0,0 l/m 2,3 km/h (1 Bft) O-SO 105 0 min 0 W/m 15,0 C 16,6 C 3,2 km/h (1 Bft)
16.07.2018 03:20 16,6 C 16,6 C 90 % 1021,5 hPa 0,0 l/m 1,4 km/h (1 Bft) SW 214 0 min 0 W/m 15,0 C 16,6 C 3,2 km/h (1 Bft)
16.07.2018 03:15 16,7 C 16,7 C 90 % 1021,4 hPa 0,3 l/m 1,1 km/h (1 Bft) SW 214 0 min 0 W/m 15,0 C 16,7 C 3,2 km/h (1 Bft)
16.07.2018 03:10 16,7 C 16,7 C 90 % 1021,4 hPa 0,0 l/m 0,1 km/h (0 Bft) S-SW 211 0 min 0 W/m 15,0 C 16,7 C 1,6 km/h (1 Bft)
16.07.2018 03:05 16,7 C 16,7 C 90 % 1021,4 hPa 0,0 l/m 0,2 km/h (0 Bft) S-SW 211 0 min 0 W/m 15,0 C 16,7 C 1,6 km/h (1 Bft)
16.07.2018 03:00 16,7 C 16,7 C 90 % 1021,4 hPa 0,0 l/m 1,4 km/h (1 Bft) S-SW 211 0 min 0 W/m 15,0 C 16,7 C 3,2 km/h (1 Bft)
16.07.2018 02:55 16,8 C 16,8 C 89 % 1021,4 hPa 0,0 l/m 0,6 km/h (0 Bft) S-SW 211 0 min 0 W/m 15,0 C 16,8 C 3,2 km/h (1 Bft)
16.07.2018 02:50 16,8 C 16,8 C 89 % 1021,4 hPa 0,0 l/m 0,6 km/h (0 Bft) S-SW 211 0 min 0 W/m 15,0 C 16,8 C 3,2 km/h (1 Bft)
16.07.2018 02:45 16,8 C 16,8 C 89 % 1021,4 hPa 0,0 l/m 1,4 km/h (1 Bft) S-SW 211 0 min 0 W/m 15,0 C 16,8 C 4,8 km/h (1 Bft)
16.07.2018 02:40 16,9 C 16,9 C 89 % 1021,5 hPa 0,0 l/m 1,8 km/h (1 Bft) NO 53 0 min 0 W/m 15,1 C 16,9 C 3,2 km/h (1 Bft)
16.07.2018 02:35 16,9 C 16,9 C 89 % 1021,4 hPa 0,0 l/m 0,7 km/h (0 Bft) N-NO 20 0 min 0 W/m 15,1 C 16,9 C 1,6 km/h (1 Bft)
16.07.2018 02:30 16,9 C 16,9 C 89 % 1021,3 hPa 0,0 l/m 0,8 km/h (0 Bft) N-NO 20 0 min 0 W/m 15,1 C 16,9 C 1,6 km/h (1 Bft)
16.07.2018 02:25 16,9 C 16,9 C 88 % 1021,3 hPa 0,0 l/m 0,6 km/h (0 Bft) N-NO 20 0 min 0 W/m 14,9 C 16,9 C 1,6 km/h (1 Bft)
16.07.2018 02:20 16,9 C 16,9 C 88 % 1021,2 hPa 0,0 l/m 0,6 km/h (0 Bft) N-NO 20 0 min 0 W/m 14,9 C 16,9 C 3,2 km/h (1 Bft)
16.07.2018 02:15 16,9 C 16,8 C 88 % 1021,3 hPa 0,0 l/m 0,1 km/h (0 Bft) N-NO 21 0 min 0 W/m 14,9 C 16,9 C 1,6 km/h (1 Bft)
16.07.2018 02:10 16,8 C 16,8 C 88 % 1021,3 hPa 0,0 l/m 0,5 km/h (0 Bft) N-NO 20 0 min 0 W/m 14,8 C 16,8 C 1,6 km/h (1 Bft)
16.07.2018 02:05 16,8 C 16,7 C 88 % 1021,4 hPa 0,0 l/m 1,2 km/h (1 Bft) N-NO 20 0 min 0 W/m 14,8 C 16,8 C 3,2 km/h (1 Bft)
16.07.2018 02:00 16,7 C 16,7 C 87 % 1021,4 hPa 0,0 l/m 1,3 km/h (1 Bft) N-NO 20 0 min 0 W/m 14,5 C 16,7 C 3,2 km/h (1 Bft)
16.07.2018 01:55 16,7 C 16,7 C 87 % 1021,4 hPa 0,0 l/m 1,9 km/h (1 Bft) N-NO 20 0 min 0 W/m 14,5 C 16,7 C 3,2 km/h (1 Bft)
16.07.2018 01:50 16,7 C 16,7 C 87 % 1021,4 hPa 0,0 l/m 2,2 km/h (1 Bft) N-NO 20 0 min 0 W/m 14,5 C 16,7 C 4,8 km/h (1 Bft)
16.07.2018 01:45 16,7 C 16,7 C 87 % 1021,5 hPa 0,0 l/m 2,3 km/h (1 Bft) NW 314 0 min 0 W/m 14,5 C 16,7 C 6,4 km/h (2 Bft)
16.07.2018 01:40 16,7 C 16,7 C 87 % 1021,4 hPa 0,0 l/m 3,2 km/h (1 Bft) N 355 0 min 0 W/m 14,5 C 16,7 C 6,4 km/h (2 Bft)
16.07.2018 01:35 16,8 C 16,8 C 87 % 1021,5 hPa 0,0 l/m 3,3 km/h (1 Bft) N-NW 341 0 min 0 W/m 14,6 C 16,8 C 6,4 km/h (2 Bft)
16.07.2018 01:30 16,8 C 16,8 C 87 % 1021,6 hPa 0,0 l/m 3,2 km/h (1 Bft) N 360 0 min 0 W/m 14,6 C 16,8 C 4,8 km/h (1 Bft)
16.07.2018 01:25 16,9 C 16,9 C 86 % 1021,6 hPa 0,0 l/m 3,3 km/h (1 Bft) N-NO 13 0 min 0 W/m 14,5 C 16,9 C 6,4 km/h (2 Bft)
16.07.2018 01:20 17,0 C 17,0 C 86 % 1021,7 hPa 0,0 l/m 4,0 km/h (1 Bft) NO 42 0 min 0 W/m 14,6 C 17,0 C 6,4 km/h (2 Bft)
16.07.2018 01:15 17,1 C 17,1 C 86 % 1021,8 hPa 0,0 l/m 4,1 km/h (1 Bft) N-NW 334 0 min 0 W/m 14,7 C 17,1 C 8,0 km/h (2 Bft)
16.07.2018 01:10 17,3 C 17,3 C 85 % 1021,8 hPa 0,0 l/m 3,1 km/h (1 Bft) N 360 0 min 0 W/m 14,8 C 17,3 C 4,8 km/h (1 Bft)
16.07.2018 01:05 17,4 C 17,4 C 85 % 1021,8 hPa 0,0 l/m 3,0 km/h (1 Bft) N-NO 32 0 min 0 W/m 14,8 C 17,4 C 4,8 km/h (1 Bft)
16.07.2018 01:00 17,4 C 17,4 C 85 % 1021,7 hPa 0,0 l/m 0,0 km/h (0 Bft) S 178 0 min 0 W/m 14,8 C 17,4 C 0,0 km/h (0 Bft)
16.07.2018 00:55 17,4 C 17,4 C 84 % 1021,8 hPa 0,0 l/m 1,0 km/h (0 Bft) S 178 0 min 0 W/m 14,7 C 17,4 C 3,2 km/h (1 Bft)
16.07.2018 00:50 17,4 C 17,3 C 84 % 1021,8 hPa 0,3 l/m 1,2 km/h (1 Bft) S 178 0 min 0 W/m 14,7 C 17,4 C 3,2 km/h (1 Bft)
16.07.2018 00:45 17,3 C 17,3 C 83 % 1021,8 hPa 0,0 l/m 0,0 km/h (0 Bft) S 178 0 min 0 W/m 14,4 C 17,3 C 1,6 km/h (1 Bft)
16.07.2018 00:40 17,3 C 17,3 C 83 % 1021,8 hPa 0,0 l/m 1,0 km/h (0 Bft) S 178 0 min 0 W/m 14,4 C 17,3 C 3,2 km/h (1 Bft)
16.07.2018 00:35 17,3 C 17,2 C 83 % 1021,7 hPa 0,0 l/m 1,6 km/h (1 Bft) S 178 0 min 0 W/m 14,4 C 17,3 C 3,2 km/h (1 Bft)
16.07.2018 00:30 17,2 C 17,2 C 83 % 1021,8 hPa 0,0 l/m 2,1 km/h (1 Bft) S 178 0 min 0 W/m 14,3 C 17,2 C 3,2 km/h (1 Bft)
16.07.2018 00:25 17,2 C 17,2 C 83 % 1021,7 hPa 0,0 l/m 2,3 km/h (1 Bft) S 178 0 min 0 W/m 14,3 C 17,2 C 4,8 km/h (1 Bft)
16.07.2018 00:20 17,2 C 17,1 C 83 % 1021,7 hPa 0,0 l/m 2,1 km/h (1 Bft) SW 235 0 min 0 W/m 14,3 C 17,2 C 3,2 km/h (1 Bft)
16.07.2018 00:15 17,1 C 17,1 C 83 % 1021,6 hPa 0,0 l/m 1,2 km/h (1 Bft) N-NW 333 0 min 0 W/m 14,2 C 17,1 C 3,2 km/h (1 Bft)
16.07.2018 00:10 17,1 C 17,0 C 83 % 1021,4 hPa 0,0 l/m 3,0 km/h (1 Bft) N-NW 333 0 min 0 W/m 14,2 C 17,1 C 4,8 km/h (1 Bft)
16.07.2018 00:05 17,0 C 17,0 C 83 % 1021,3 hPa 0,0 l/m 1,7 km/h (1 Bft) N-NW 333 0 min 0 W/m 14,1 C 17,0 C 3,2 km/h (1 Bft)
16.07.2018 00:00 17,0 C 16,9 C 83 % 1021,3 hPa 0,0 l/m 1,6 km/h (1 Bft) N-NW 333 0 min 0 W/m 14,1 C 17,0 C 3,2 km/h (1 Bft)
_ Min-Zeit 04:50 04:50 00:00 06:35 - 00:45 - - - - 00:00 04:50 01:00
Minimum _ 15,9 C 15,9 C 83 % 1020,9 hPa - 0,0 km/h (0 Bft) - - - - 14,1 C 15,9 C 0,0 km/h (0 Bft)
_ Max-Zeit 00:50 00:55 06:35 04:00 00:50 05:00 - - 00:00 00:00 08:55 00:50 04:55
Maximum _ 17,4 C 17,4 C 94 % 1022,0 hPa 0,3 l/m 6,9 km/h
NO (2 Bft)
- - 0 min 0 W/m 16,3 C 17,4 C 14,5 km/h
NO (3 Bft)
Durchschnitt _ 16,6 C 16,6 C 90 % 1021,4 hPa #2,8 l/m 1,8 km/h (1 Bft) S - #0 min. 0 W/m 15,0 C 16,6 C 4,2 km/h (1 Bft)